| time (UTC) | temp F | wind direction | speed knots | gust knots | rain 1hr in | rain 24hr in | rain mn in | humidity % | barometer mb |
| 20260503012520 | 52 | 0.0 | 2.6 | 0.01 | 0.72 | 0.01 | 93 | 1011.1 | |
| 20260503011524 | 52 | 248 | 1.7 | 2.6 | 0.01 | 0.72 | 0.01 | 93 | 1011.0 |
| 20260503010521 | 52 | 225 | 1.7 | 2.6 | 0.01 | 0.72 | 0.01 | 93 | 1011.2 |
| 20260503005540 | 52 | 225 | 0.9 | 1.7 | 0.01 | 0.72 | 0.01 | 93 | 1011.4 |
| 20260503003519 | 52 | 0.0 | 1.7 | 0.01 | 0.72 | 0.01 | 93 | 1011.3 | |
| 20260503002520 | 52 | 225 | 0.9 | 2.6 | 0.00 | 0.72 | 0.00 | 93 | 1011.3 |
| 20260503001521 | 52 | 225 | 0.9 | 1.7 | 0.00 | 0.72 | 0.00 | 93 | 1011.6 |
| 20260503000520 | 52 | 225 | 0.9 | 2.6 | 0.00 | 0.72 | 0.00 | 93 | 1011.6 |
| 20260502235519 | 52 | 0.0 | 0.0 | 0.00 | 0.72 | 0.00 | 93 | 1011.7 | |
| 20260502234523 | 52 | 0.0 | 0.0 | 0.00 | 0.72 | 0.00 | 92 | 1011.7 | |
| 20260502233520 | 52 | 0.0 | 0.0 | 0.00 | 0.72 | 0.00 | 93 | 1011.8 | |
| 20260502232522 | 52 | 0.0 | 0.0 | 0.00 | 0.72 | 0.00 | 93 | 1011.8 | |
| 20260502231521 | 52 | 0.0 | 0.0 | 0.00 | 0.72 | 0.00 | 93 | 1011.8 | |
| 20260502230545 | 52 | 0.0 | 1.7 | 0.00 | 0.72 | 0.00 | 93 | 1011.8 | |
| 20260502225520 | 52 | 225 | 0.9 | 1.7 | 0.00 | 0.72 | 0.72 | 92 | 1011.9 |
| 20260502224520 | 52 | 248 | 0.9 | 2.6 | 0.00 | 0.72 | 0.72 | 93 | 1012.1 |
| 20260502223540 | 52 | 0.0 | 0.0 | 0.00 | 0.72 | 0.72 | 92 | 1011.9 | |
| 20260502222518 | 52 | 0.0 | 0.0 | 0.00 | 0.72 | 0.72 | 92 | 1011.9 | |
| 20260502221539 | 52 | 0.0 | 0.0 | 0.00 | 0.72 | 0.72 | 92 | 1012.2 | |
| 20260502220523 | 52 | 0.0 | 0.0 | 0.00 | 0.72 | 0.72 | 92 | 1012.2 | |
| 20260502215519 | 52 | 0.0 | 0.9 | 0.00 | 0.72 | 0.72 | 92 | 1012.2 | |
| 20260502214520 | 53 | 0.0 | 0.0 | 0.00 | 0.72 | 0.72 | 92 | 1012.2 | |
| 20260502213614 | 53 | 0.0 | 0.9 | 0.00 | 0.72 | 0.72 | 92 | 1012.2 | |
| 20260502212540 | 53 | 0.0 | 1.7 | 0.00 | 0.72 | 0.72 | 92 | 1012.2 | |
| 20260502211519 | 53 | 0.0 | 0.9 | 0.00 | 0.72 | 0.72 | 92 | 1012.3 | |
| 20260502210519 | 53 | 248 | 0.9 | 2.6 | 0.00 | 0.72 | 0.72 | 92 | 1012.3 |
| 20260502205519 | 53 | 248 | 0.9 | 2.6 | 0.00 | 0.72 | 0.72 | 92 | 1012.0 |
| 20260502204518 | 53 | 248 | 0.9 | 1.7 | 0.00 | 0.72 | 0.72 | 92 | 1012.1 |
| 20260502203520 | 53 | 248 | 0.9 | 1.7 | 0.00 | 0.72 | 0.72 | 92 | 1012.2 |
| 20260502202525 | 53 | 0.0 | 1.7 | 0.01 | 0.72 | 0.72 | 92 | 1012.1 | |
| 20260502201520 | 53 | 248 | 0.9 | 1.7 | 0.01 | 0.72 | 0.72 | 92 | 1012.2 |
| 20260502200519 | 53 | 0.0 | 0.9 | 0.01 | 0.72 | 0.72 | 92 | 1011.9 | |
| 20260502195517 | 53 | 0.0 | 0.0 | 0.01 | 0.72 | 0.72 | 92 | 1012.1 | |
| 20260502194556 | 53 | 0.0 | 1.7 | 0.02 | 0.72 | 0.72 | 92 | 1012.1 | |
| 20260502193519 | 53 | 0.0 | 0.9 | 0.02 | 0.72 | 0.72 | 92 | 1012.2 | |
| 20260502192517 | 53 | 0.0 | 0.9 | 0.02 | 0.71 | 0.71 | 92 | 1012.3 | |
| 20260502191519 | 53 | 248 | 0.9 | 1.7 | 0.02 | 0.71 | 0.71 | 92 | 1012.3 |
| 20260502190516 | 53 | 248 | 0.9 | 2.6 | 0.02 | 0.71 | 0.71 | 92 | 1012.3 |
| 20260502185516 | 53 | 270 | 1.7 | 3.5 | 0.02 | 0.70 | 0.70 | 92 | 1012.4 |
| 20260502184536 | 53 | 248 | 0.9 | 2.6 | 0.03 | 0.70 | 0.70 | 91 | 1012.4 |
| 20260502183543 | 53 | 248 | 1.7 | 3.5 | 0.03 | 0.69 | 0.69 | 91 | 1012.4 |
| 20260502182516 | 53 | 270 | 1.7 | 2.6 | 0.04 | 0.69 | 0.69 | 91 | 1012.6 |
| 20260502181518 | 53 | 248 | 1.7 | 2.6 | 0.06 | 0.69 | 0.69 | 91 | 1012.6 |
| 20260502180517 | 54 | 270 | 1.7 | 3.5 | 0.07 | 0.69 | 0.69 | 91 | 1012.9 |
| 20260502170519 | 55 | 248 | 1.7 | 2.6 | 0.23 | 0.61 | 0.61 | 90 | 1013.1 |
| 20260502163516 | 55 | 203 | 1.7 | 3.5 | 0.24 | 0.53 | 0.53 | 90 | 1013.4 |
| 20260502162538 | 55 | 203 | 0.9 | 2.6 | 0.22 | 0.50 | 0.50 | 90 | 1013.5 |
| 20260502161518 | 55 | 203 | 0.9 | 1.7 | 0.19 | 0.45 | 0.45 | 90 | 1013.4 |
| 20260502160516 | 55 | 203 | 0.9 | 1.7 | 0.13 | 0.39 | 0.39 | 89 | 1013.4 |
| 20260502152020 | 56 | 0 | 1.7 | 3.5 | 0.17 | 0.28 | 0.28 | 89 | 1013.3 |
| 20260502151019 | 56 | 68 | 0.9 | 2.6 | 0.18 | 0.26 | 0.26 | 89 | 1013.4 |
| 20260502130104 | 62 | 158 | 3.5 | 7.0 | 0.00 | 0.00 | 0.00 | 70 | 1015.5 |
| 20260502123018 | 62 | 158 | 2.6 | 6.1 | 0.00 | 0.00 | 0.00 | 67 | 1015.8 |
| 20260502122017 | 63 | 135 | 2.6 | 5.2 | 0.00 | 0.00 | 0.00 | 67 | 1015.9 |
| 20260502121017 | 63 | 68 | 2.6 | 6.1 | 0.00 | 0.00 | 0.00 | 65 | 1015.9 |
| 20260502115019 | 63 | 113 | 2.6 | 7.8 | 0.00 | 0.00 | 0.00 | 65 | 1016.4 |
| 20260502114017 | 63 | 135 | 2.6 | 6.1 | 0.00 | 0.00 | 0.00 | 64 | 1016.6 |
| 20260502113019 | 63 | 135 | 1.7 | 3.5 | 0.00 | 0.00 | 0.00 | 65 | 1016.6 |
| 20260502112019 | 64 | 135 | 2.6 | 5.2 | 0.00 | 0.00 | 0.00 | 63 | 1016.6 |
| 20260502111017 | 65 | 113 | 1.7 | 6.1 | 0.00 | 0.00 | 0.00 | 64 | 1016.8 |
| 20260502110022 | 65 | 113 | 2.6 | 5.2 | 0.00 | 0.00 | 0.00 | 63 | 1017.2 |
| 20260502105018 | 65 | 68 | 3.5 | 8.7 | 0.00 | 0.00 | 0.00 | 64 | 1017.2 |
| 20260502104018 | 65 | 68 | 2.6 | 5.2 | 0.00 | 0.00 | 0.00 | 64 | 1017.4 |
| 20260502103038 | 65 | 113 | 3.5 | 7.0 | 0.00 | 0.00 | 0.00 | 62 | 1017.6 |
| 20260502102019 | 65 | 90 | 3.5 | 7.8 | 0.00 | 0.00 | 0.00 | 66 | 1017.8 |
| 20260502101038 | 64 | 90 | 3.5 | 7.8 | 0.00 | 0.00 | 0.00 | 67 | 1017.8 |
| 20260502091019 | 60 | 113 | 3.5 | 6.1 | 0.00 | 0.00 | 0.00 | 71 | 1018.1 |
| 20260502071017 | 53 | 68 | 0.9 | 1.7 | 0.00 | 0.00 | 0.00 | 84 | 1018.6 |
| 20260502070017 | 52 | 90 | 1.7 | 3.5 | 0.00 | 0.00 | 0.00 | 86 | 1018.6 |
| 20260502065017 | 51 | 158 | 0.9 | 2.6 | 0.00 | 0.00 | 0.00 | 88 | 1018.8 |
| 20260502064018 | 51 | 0.0 | 0.0 | 0.00 | 0.00 | 0.00 | 89 | 1018.8 | |
| 20260502063019 | 50 | 0.0 | 0.0 | 0.00 | 0.00 | 0.00 | 91 | 1018.8 | |
| 20260502062017 | 49 | 0.0 | 0.0 | 0.00 | 0.00 | 0.00 | 91 | 1018.8 | |
| 20260502061017 | 48 | 0.0 | 0.0 | 0.00 | 0.00 | 0.00 | 91 | 1018.7 | |
| 20260502060023 | 48 | 0.0 | 0.0 | 0.00 | 0.00 | 0.00 | 91 | 1018.8 | |
| 20260502055017 | 47 | 0.0 | 0.0 | 0.00 | 0.00 | 0.00 | 91 | 1019.1 | |
| 20260502054017 | 47 | 0.0 | 0.0 | 0.00 | 0.00 | 0.00 | 90 | 1019.3 | |
| 20260502053022 | 47 | 0.0 | 0.0 | 0.00 | 0.00 | 0.00 | 91 | 1019.2 | |
| 20260502052018 | 47 | 0.0 | 0.0 | 0.00 | 0.00 | 0.00 | 91 | 1019.3 | |
| 20260502051017 | 47 | 0.0 | 0.0 | 0.00 | 0.00 | 0.00 | 90 | 1019.2 | |
| 20260502050019 | 47 | 0.0 | 0.0 | 0.00 | 0.00 | 0.00 | 90 | 1019.4 | |
| 20260502045017 | 47 | 0.0 | 0.0 | 0.00 | 0.00 | 0.00 | 90 | 1019.1 | |
| 20260502044017 | 47 | 0.0 | 0.0 | 0.00 | 0.00 | 0.00 | 90 | 1019.2 | |
| 20260502043022 | 47 | 0.0 | 0.0 | 0.00 | 0.00 | 0.00 | 89 | 1019.2 | |
| 20260502042017 | 47 | 0.0 | 0.0 | 0.00 | 0.00 | 0.00 | 90 | 1019.1 | |
| 20260502041017 | 47 | 0.0 | 0.0 | 0.00 | 0.00 | 0.00 | 90 | 1019.1 | |
| 20260502040019 | 46 | 0.0 | 0.0 | 0.00 | 0.00 | 0.00 | 89 | 1019.1 | |
| 20260502035022 | 46 | 0.0 | 0.0 | 0.00 | 0.00 | 0.00 | 89 | 1019.3 | |
| 20260502034017 | 46 | 0.0 | 0.0 | 0.00 | 0.00 | 0.00 | 89 | 1019.3 | |
| 20260502033017 | 46 | 0.0 | 0.0 | 0.00 | 0.00 | 0.00 | 89 | 1019.6 | |
| 20260502032017 | 47 | 0.0 | 0.0 | 0.00 | 0.00 | 0.00 | 88 | 1019.7 | |
| 20260502031017 | 47 | 0.0 | 0.0 | 0.00 | 0.00 | 0.00 | 88 | 1019.7 | |
| 20260502030024 | 47 | 0.0 | 0.0 | 0.00 | 0.00 | 0.00 | 88 | 1019.5 | |
| 20260502025017 | 48 | 0.0 | 0.0 | 0.00 | 0.00 | 0.00 | 88 | 1019.5 | |
| 20260502024016 | 48 | 0.0 | 0.0 | 0.00 | 0.00 | 0.00 | 88 | 1019.4 | |
| 20260502023018 | 48 | 0.0 | 0.0 | 0.00 | 0.00 | 0.00 | 87 | 1019.6 | |
| 20260502022018 | 49 | 0.0 | 0.0 | 0.00 | 0.00 | 0.00 | 87 | 1019.7 | |
| 20260502021039 | 49 | 0.0 | 0.0 | 0.00 | 0.00 | 0.00 | 88 | 1019.9 | |
| 20260502020039 | 49 | 0.0 | 0.0 | 0.00 | 0.00 | 0.00 | 88 | 1020.0 | |
| 20260502014026 | 49 | 0.0 | 0.0 | 0.00 | 0.00 | 0.00 | 88 | 1020.0 |